Tracking 28790 objects as of 19-Apr-2024
HD Live streaming from Space Station
objects crossing your sky now

GONETS D1M 1

Track GONETS D1M 1 now!
10-day predictions
GONETS D1M 1 is classified as:


NORAD ID: 28909
Int'l Code: 2005-048B
Perigee: 1,442.8 km
Apogee: 1,456.8 km
Inclination: 82.5 °
Period: 114.7 minutes
Semi major axis: 7820 km
RCS: 1.6605 m2 (large)
Launch date: December 21, 2005
Source: Commonwealth of Independent States (former USSR) (CIS)
Launch site: PLESETSK MISSILE AND SPACE COMPLEX (PKMTR)
Your satellite tracking list
Your tracking list is empty




NASA's NSSDC Master Catalog

Two Line Element Set (TLE):
1 28909U 05048B   24110.17594903  .00000056  00000-0  28326-3 0  9996
2 28909  82.4637  94.5412 0008934 117.2806 335.8343 12.55245408839683
Source of the keplerian elements: AFSPC